Champaign, IL

1:44 PM CDT on August 21, 2019 (GMT -0500)
Univ Of Illinois-Willard

Weather History for KCMI - July, 2019

Change the Weather History Date:

Wednesday, July 17, 2019

  Actual Average Record
Temperature  
Mean Temperature 81 °F 74 °F  
Max Temperature 90 °F 84 °F 96 °F (2012)
Min Temperature 71 °F 64 °F 53 °F (2014)
Degree Days  
Heating Degree Days 0 0  
Month to date heating degree days 0 0  
Since 1 June heating degree days 7 17  
Since 1 July heating degree days 0 0  
Cooling Degree Days 16 9  
Month to date cooling degree days 230 162  
Year to date cooling degree days 574 477  
Since 1 June cooling degree days 464 385  
Growing Degree Days 30 (Base 50)    
Moisture  
Dew Point 73 °F    
Average Humidity 80    
Maximum Humidity 100    
Minimum Humidity 59    
Precipitation  
Precipitation 0.00 in 0.17 in 1.49 in (1950)
Month to date precipitation 3.53 2.40  
Year to date precipitation 24.28 21.73  
Sea Level Pressure  
Sea Level Pressure 29.92 in    
Wind  
Wind Speed 5 mph (WSW)    
Max Wind Speed 10 mph    
Max Gust Speed 14 mph    
Visibility 8 miles    
Events      
T = Trace of Precipitation, MM = Missing Value Source: NWS Daily Summary

Daily Weather History Graph

Daily Weather History Graph

Search for Another Location

Airport or City:

Astronomy

Jul. 17, 2019 Rise Set
Actual Time 5:38 AM CDT 8:19 PM CDT
Civil Twilight 5:06 AM CDT 8:51 PM CDT
Nautical Twilight 4:26 AM CDT 9:31 PM CDT
Astronomical Twilight 3:41 AM CDT 10:15 PM CDT
Moon 9:08 PM CDT (7/17) 6:10 AM CDT (7/17)
Length of Visible Light 15h 45m
Length of Day
14h 41m
Full, 99% of the Moon is Illuminated
Jul 17
Full
Jul 24
Last Quarter
Jul 31
New
Aug 7
First Quarter
Aug 15
Full

Hourly Weather History & Observations

Time (CDT) Temp. Heat Index Dew Point Humidity Pressure Visibility Wind Dir Wind Speed Gust Speed Precip Events Conditions
12:53 AM 73.0 °F - 72.0 °F 96% 29.87 in 8.0 mi WSW 5.8 mph - N/A   Clear
1:53 AM 72.0 °F - 71.1 °F 97% 29.88 in 7.0 mi West 5.8 mph - N/A   Clear
2:53 AM 72.0 °F - 71.1 °F 97% 29.88 in 6.0 mi West 4.6 mph - N/A   Mostly Cloudy
3:53 AM 72.0 °F - 71.1 °F 97% 29.89 in 4.0 mi West 5.8 mph - N/A   Clear
4:53 AM 72.0 °F - 71.1 °F 97% 29.90 in 5.0 mi West 4.6 mph - N/A   Overcast
5:53 AM 73.0 °F - 72.0 °F 96% 29.91 in 4.0 mi WSW 3.5 mph - N/A   Overcast
6:53 AM 73.9 °F - 73.0 °F 97% 29.92 in 5.0 mi West 5.8 mph - N/A   Scattered Clouds
7:53 AM 77.0 °F - 73.9 °F 90% 29.93 in 5.0 mi WNW 4.6 mph - N/A   Clear
8:53 AM 81.0 °F 86.7 °F 75.0 °F 82% 29.95 in 10.0 mi West 6.9 mph - N/A   Partly Cloudy
9:53 AM 81.0 °F 85.8 °F 73.0 °F 77% 29.96 in 10.0 mi WNW 5.8 mph - N/A   Mostly Cloudy
10:53 AM 84.0 °F 91.2 °F 73.9 °F 72% 29.95 in 10.0 mi Calm Calm - N/A   Partly Cloudy
11:53 AM 84.0 °F 91.2 °F 73.9 °F 72% 29.96 in 10.0 mi Calm Calm - N/A   Partly Cloudy
12:53 PM 86.0 °F 93.8 °F 73.9 °F 67% 29.95 in 10.0 mi WSW 6.9 mph - N/A   Partly Cloudy
1:53 PM 88.0 °F 95.6 °F 73.0 °F 61% 29.95 in 10.0 mi WSW 6.9 mph - N/A   Partly Cloudy
2:53 PM 88.0 °F 95.6 °F 73.0 °F 61% 29.92 in 10.0 mi SW 8.1 mph - N/A   Clear
3:53 PM 89.1 °F 97.0 °F 73.0 °F 59% 29.93 in 10.0 mi West 6.9 mph - N/A   Clear
4:53 PM 89.1 °F 98.0 °F 73.9 °F 61% 29.93 in 10.0 mi West 5.8 mph - N/A   Clear
5:53 PM 84.9 °F 93.3 °F 75.0 °F 72% 29.92 in 10.0 mi West 4.6 mph - N/A   Clear
6:53 PM 81.0 °F 86.7 °F 75.0 °F 82% 29.92 in 10.0 mi West 3.5 mph - N/A   Clear
7:53 PM 80.1 °F 85.1 °F 75.0 °F 85% 29.88 in 10.0 mi South 8.1 mph - N/A   Clear
8:53 PM 79.0 °F - 73.9 °F 84% 29.89 in 10.0 mi SSW 4.6 mph - N/A   Clear
9:53 PM 78.1 °F - 73.9 °F 87% 29.92 in 10.0 mi ESE 4.6 mph - N/A   Clear
10:53 PM 77.0 °F - 73.9 °F 90% 29.89 in 10.0 mi South 4.6 mph - N/A   Clear
11:53 PM 75.0 °F - 73.0 °F 94% 29.91 in 9.0 mi South 5.8 mph - N/A   Clear